Regional Weather Roundup
Issued by NWS

Home | Current Version | Previous Version | Text Only | Print | Product List | Glossary On
Versions: 1 2 3 4 5 6 7 8 9 10 11 12 13 14 15 16 17 18 19 20 21 22 23 24 25 26 27 28 29 30 31 32 33 34 35 36 37 38 39 40 41 42 43 44 45 46 47 48 49 50
000
ASUS43 KLSX 271007
RWRMO

WEATHER SUMMARY FOR MISSOURI
NATIONAL WEATHER SERVICE SPRINGFIELD MO
400 AM CST TUE JAN 27 2015

NOTE: "FAIR" INDICATES FEW OR NO CLOUDS BELOW 12,000 FEET WITH NO
       SIGNIFICANT WEATHER AND/OR OBSTRUCTIONS TO VISIBILITY.
       CURRENT SKY AND/OR WEATHER CONDITIONS ARE NOT AVAILABLE FOR
       CHILLICOTHE AND FARMINGTON.

MOZ001>031-035>038-043-044-053-054-271100-
...NORTHERN AND WESTERN MISSOURI...

CITY           SKY/WX    TMP DP  RH WIND       PRES   REMARKS
KANSAS CTY INT CLEAR     38  32  79 NW6       30.08R
KANSAS C DTWN  CLEAR     36  30  79 CALM      30.08S
LEE`S SUMMIT   CLEAR     36  30  79 N8        30.08R WCI  30
ST JOSEPH      CLEAR     31  28  89 NE6       30.09S WCI  25
CHILLICOTHE      N/A     32  29  88 NW3       30.07S
KIRKSVILLE     CLEAR     33  30  88 NW7       30.03R WCI  27

$$
MOZ066>068-077>081-088>096-101>105-271100-
...SOUTHWEST MISSOURI...

CITY           SKY/WX    TMP DP  RH WIND       PRES   REMARKS
SPRINGFIELD    CLEAR     39  31  72 NW7       30.04R
JOPLIN         CLEAR     38  32  79 N3        30.07F

$$
MOZ032>034-039>042-045>050-055>058-069>072-271100-
...CENTRAL MISSOURI...

CITY           SKY/WX    TMP DP  RH WIND       PRES   REMARKS
COLUMBIA       CLEAR     34  31  88 N7        30.02R WCI  28
JEFFERSON CITY CLEAR     31  29  92 W3        30.04R
ROLLA          CLEAR     37  32  82 NW9       29.99R
SEDALIA        CLEAR     38  32  79 NW8       30.07R
WHITEMAN AFB   CLEAR     35  31  83 N6        30.06R
WARRENSBURG    CLEAR     36  32  87 NW5       30.08R
OSAGE BEACH    CLEAR     41  32  70 NW5       30.04R

$$
MOZ051-052-059>065-271100-
...EAST CENTRAL MISSOURI...

CITY           SKY/WX    TMP DP  RH WIND       PRES   REMARKS
ST LOUIS INTL  PTCLDY    38  32  79 NW8       29.97R
SPIRIT OF STL  MOCLDY    38  33  82 NW8       29.98R
ST CHARLES     CLEAR     36  33  89 NW7       29.98R

$$
MOZ072>076-082>087-097>100-106>115-271100-
...SOUTH CENTRAL AND SOUTHEAST MISSOURI...

CITY           SKY/WX    TMP DP  RH WIND       PRES   REMARKS
CAPE GIRARDEAU CLOUDY    32  31  96 W3        29.95R
FARMINGTON     CLOUDY    39  34  81 MISG      29.99R
POPLAR BLUFF   CLEAR     34  30  85 W8        29.96R WCI  27
WEST PLAINS    CLEAR     43  32  65 NW9       30.00R

$$


USA.gov is the U.S. government's official web portal to all federal, state and local government web resources and services.